Regional Weather Roundup
Issued by NWS

Current Version | Previous Version | Text Only | Print | Product List | Glossary On
Versions: 1 2 3 4 5 6 7 8 9 10 11 12 13 14 15 16 17 18 19 20 21 22 23 24 25 26 27 28 29 30 31 32 33 34 35 36 37 38 39 40 41 42 43 44 45 46 47 48 49 50
000
ASUS44 KFWD 281115
RWRTX
NORTH TEXAS HOURLY WEATHER ROUNDUP
NATIONAL WEATHER SERVICE FORT WORTH TX
600 AM CDT THU AUG 28 2014

NOTE: "FAIR" INDICATES FEW OR NO CLOUDS BELOW 12,000 FEET WITH NO
SIGNIFICANT WEATHER AND/OR OBSTRUCTIONS TO VISIBILITY.

TXZ118-119-281200-
DALLAS/FORT WORTH METROPLEX

CITY           SKY/WX    TMP DP  RH WIND       PRES   REMARKS
DFW AIRPORT    CLEAR     77  61  57 SE5       29.96R
DALLAS LOVE    PTCLDY    77  64  64 S7        29.96S
FTW MEACHAM    CLEAR     76  64  66 SE6       29.95F
DAL-EXECUTIVE  CLEAR     76  62  62 S3        29.96S
FTW-ALLIANCE   CLEAR     73  61  65 CALM      29.95S
FTW-NAS-JRB    CLEAR     79  62  56 E5        29.99F
FTW-SPINKS     CLEAR     71  64  78 S3        29.97S
ARLINGTON      CLEAR     73  63  70 SE5       29.96S
GRAND PRAIRIE  CLEAR     76  64  66 CALM      29.98R
ADDISON        CLEAR     77  61  57 SE6       29.97F
LANCASTER      CLEAR     68  59  73 CALM      29.97S
$$

TXZ091>094-102>105-117-120-121-131>134-281200-
NORTH CENTRAL TEXAS

CITY           SKY/WX    TMP DP  RH WIND       PRES   REMARKS
SHRMAN/DENISON CLEAR     75  63  65 SE8       29.98S
GAINESVILLE    CLEAR     70  64  81 CALM      29.99S
BOWIE          CLEAR     69  64  82 CALM      29.98S
BRIDGEPORT     CLEAR     69  60  73 CALM      29.98S
DECATUR        CLEAR     71  59  66 CALM      29.97S
DENTON         CLEAR     70  64  81 CALM      29.96S
MCKINNEY       CLEAR     70  65  84 CALM      29.97S
GREENVILLE     PTCLDY    70  64  83 CALM      29.98S
ROCKWALL       MOCLDY    73  65  77 SE5       29.96S
TERRELL        MOCLDY    73  66  78 CALM      29.98R
WAXAHACHIE     CLEAR     72  62  70 CALM      29.98S
CLEBURNE       CLEAR     73  66  78 SE5       29.99R
GRANBURY       CLEAR     76  62  62 CALM      29.97S
$$

TXZ083>090-098>101-113>116-127>130-139>142-154-155-281200-
WESTERN NORTH TEXAS

CITY           SKY/WX    TMP DP  RH WIND       PRES   REMARKS
WICHITA FALLS  CLEAR     72  62  71 SE7       29.95F
WF-KICKAPOO    CLEAR     73  60  63 SE8       29.96F
VERNON         PTCLDY    76  61  58 S6        29.96S
ABILENE        CLEAR     75  57  53 SE9       29.99S
ABILENE-DYESS  PTCLDY    74  60  61 SE9       29.97F
BRECKENRIDGE   CLEAR     77  57  49 S6        29.96S
GRAHAM         CLEAR     72  60  64 E3        29.95F
MINERAL WELLS  CLEAR     72  60  66 SE6       29.95S
STEPHENVILLE   CLEAR     71  59  65 CALM      30.00S
COMANCHE         N/A     72  61  67 S3        29.99R
BROWNWOOD      PTCLDY    72  59  64 CALM      29.99S
COLEMAN        CLEAR     73  57  59 CALM      30.00R
BRADY          CLEAR     72  59  64 SE3       29.99S
$$

TXZ143>147-156>162-174-175-281200-
CENTRAL TEXAS

CITY           SKY/WX    TMP DP  RH WIND       PRES   REMARKS
WACO           CLEAR     72  65  78 CALM      29.96S
WACO-MCGREGOR  CLEAR     72  57  60 CALM      29.97S
HILLSBORO      CLEAR     74  67  77 SE5       29.96S
CORSICANA      MOCLDY    74  67  78 CALM      29.97S
MEXIA          CLEAR     71  68  90 CALM      29.95S
HEARNE           N/A     73  70  91 CALM      29.95S
CAMERON        CLEAR     73  70  88 CALM      29.95S
TEMPLE         CLEAR     70  61  73 NW3       29.96R
KILLEEN        CLEAR     73  66  78 SE7       29.96S
KILLEEN-SKYLRK CLEAR     72  63  73 CALM      29.95S
FORT HOOD      CLEAR     75  67  76 CALM      29.97R
GATESVILLE     CLEAR     72  63  73 CALM      29.99S
HAMILTON       CLEAR     71  62  72 S13       29.99S
LAMPASAS       CLEAR     71  66  84 CALM      29.97S
$$

TXZ095>097-106>112-122>126-135>138-148>153-164>167-281200-
EAST TEXAS

CITY           SKY/WX    TMP DP  RH WIND       PRES   REMARKS
PARIS          PTCLDY    72  61  68 E6        29.99S
SULPHUR SPRNGS CLEAR     70  66  87 CALM      30.00S
CLARKSVILLE    CLEAR     73  65  77 E3        29.98S
MOUNT PLEASANT PTCLDY    70  67  92 CALM      30.00R
GILMER         CLEAR     72  66  83 CALM      30.00R
MINEOLA        PTCLDY    70  66  88 CALM      29.98S
TYLER          PTCLDY    74  67  78 CALM      29.97S
LONGVIEW       PTCLDY    73  67  81 CALM      29.97S
MARSHALL       PTCLDY    73  70  88 CALM      29.99S
ATHENS         CLOUDY    70  68  94 CALM      29.97R
PALESTINE      PTCLDY    72  70  94 CALM      29.97S
JACKSONVILLE   CLEAR     76  71  86 CALM      30.00R
HENDERSON      PTCLDY    71  69  94 CALM      29.98S
NACOGDOCHES    CLEAR     70  66  88 CALM      29.97S
LUFKIN         CLEAR     75  71  87 CALM      29.96R
$$

SUPPLEMENTAL OBSERVATIONS (CENTRAL)

CITY           SKY/WX    TMP DP  RH WIND       PRES   REMARKS
LAKE TEXOMA      N/A     70  64  83 E5          N/A
CADDO GRASSLND   N/A     72  64  78 S2          N/A
PAT MAYSE LAKE   N/A     68  64  88 NW2         N/A
LAKE LIMESTONE   N/A     72  68  88 N1          N/A
MCGREGOR         N/A     70  63  78 CALM        N/A
$$

SUPPLEMENTAL OBSERVATIONS (WEST)

CITY           SKY/WX    TMP DP  RH WIND       PRES   REMARKS
MILLERS CREEK    N/A     75  54  46 S6          N/A
LBJ GRASSLAND    N/A     73  59  60 E6          N/A
COMANCHE         N/A     72  59  64 S6          N/A
HAMBY            N/A     75  55  50 S9          N/A
$$

SUPPLEMENTAL OBSERVATIONS (EAST)

CITY           SKY/WX    TMP DP  RH WIND       PRES   REMARKS
CLARKSVILLE      N/A     70  64  83 E1          N/A
TEXARKANA        N/A     64  63  94 CALM        N/A
LINDEN           N/A     68  63  83 CALM        N/A
CADDO LAKE       N/A     66  64  94 CALM        N/A
GILMER           N/A     70  66  88 CALM        N/A
HENDERSON        N/A     72  68  88 N1          N/A
LUFKIN           N/A     72  70  94 MISG        N/A
S SABINE NF      N/A     72  70  94 CALM        N/A
$$

SUPPLEMENTAL OBSERVATIONS ARE A COLLECTION OF AUTOMATED INSTRUMENTS
THAT ARE MAINTAINED BY A VARIETY OF FEDERAL AND STATE AGENCIES.
CERTAIN ELEMENTS...SUCH AS HUMIDITY VALUES AND SUSTAINED WIND
SPEEDS...MAY BE APPROXIMATED.



USA.gov is the U.S. government's official web portal to all federal, state and local government web resources and services.